STARLINK-32661, 62899

Orbit data source: Space-Track

STARLINK-32661, 62899 is a payload satellite owned by SpaceX/Seattle (US) in LEO that was launched on Tue, 04 Feb 2025 UTC via an FALCON 9 launch vehicle from the Air Force Eastern Test Range (AFETR). Payload-class satellites include a variety of spacecraft equipped with specific instruments for various scientific and technological missions. These include communications satellites like Starlink; space stations such as the ISS; scientific satellites like the Hubble; Earth observation satellites from companies like Planet Labs, Umbra, and HawkEye 360; GPS; miniature CubeSats for education and research; and military/defense satellites.

Loading next visibility...
Identifier
62899, 2025-024W
Orbit
LEO
Country
Flag of USUS
Related business
Manufacturer
SpaceX/Seattle
Mission
Operational Commercial Communications
Bus & Motor
STARLINK V2M, Unknown motor
Mass
730 kg wet, ~700 kg dry
Launch date (UTC)
Icon of a cake. It is the launch day of the satellite!2025-02-04 (1 year ago)
Launch vehicle
FALCON 9
Launch site
Air Force Eastern Test Range (AFETR)
Object type
Payload
Rocket body
Debris
Shape & HBR
Box + 2 Pan, 17.7 m
Radar Cross Section
33.884 m², Large (>1 m²)

Expand to show TLE details & history
Last TLE update: 1 day ago

TLE from 1 day ago
0 STARLINK-32661
1 62899U 25024W   26034.60399850  .00028268  00000-0  10324-2 0  9990
2 62899  42.9986 157.7976 0001349 251.9994 108.0711 15.27594038 57051
Epoch: 2026-02-03T14:29Z
TLE epoch observation values (Epoch: 2026-02-03T14:29:45.470Z)
Latitude
0.00001°
Longitude
166.5756°
Altitude
483.069 km
Speed
7.626 km/s
True Right ascension
10h 31m 11s
True Declination
0° 00' 00"
Sunlit
Object was in full shadow at epoch
Visualization orbit readout
Latitude
Unknown
Longitude
Unknown
Altitude
Unknown
Speed
Unknown
Apparent Right ascension
Unknown
Apparent Declination
Unknown
Sunlit
N/A
Visualization observer readout
Local Sidereal Time
18:32:33
Azimuth
Unknown
Elevation
Unknown
Doppler factor
Unknown
Orbital elements
Apogee altitude
485.878 km
Perigee altitude
484.027 km
Semi-major axis
6,863.089 km
Eccentricity
0.00013
Inclination
42.9986°
RAAN
157.7976°
Arg. of periapsis
251.9994°
True anomaly
108.0858°
Mean anomaly
108.0711°
Eccentric anomaly
108.07845°
Mean motion
3.81736 °/min
Orbital period
94.31 mins
BSTAR
0.0010324
Loading maneuver chart data...
Computing Atmospheric mass density...
Loading historical data...
Loading historical data...
Loading historical data...
Loading historical data...
Loading historical data...
Loading historical data...
Loading historical data...

Documentation

Showing up to 5 results
|